Theta_e
301 302 301 300 300 298 298 296 296 296 296 297 298 299 300 300 299 298 299 300 299 300 300 301 298 298 297 295 295 296 295 296 295 295 295 295 296 296 296 296 296 295 294 293 293 292 291 290 289 289 290 290 290 290 290 290 290 290 289 290 290 289 288 288 289 290 289 286 288 288 288 290 290 289 289 289 289 289 290 290 290 290 290 290 290
300 299 299 296 297 296 295 295 295 295 295 295 296 298 299 299 299 299 299 299 299 299 300 300 300 299 297 296 296 296 295 294 294 294 295 295 296 296 296 296 296 295 294 293 293 292 291 289 289 289 289 290 290 291 290 290 289 289 289 288 289 289 289 288 288 290 289 288 286 286 287 288 290 289 288 288 289 289 289 290 290 289 289 289 289
299 298 298 295 295 294 293 294 294 295 296 296 296 297 297 298 299 299 298 298 298 299 299 299 300 300 299 298 297 296 296 296 296 296 295 295 295 295 295 295 295 294 294 293 293 292 291 290 289 289 289 290 289 288 289 289 288 288 289 289 287 289 289 288 288 289 291 289 290 288 285 285 287 288 288 287 288 288 289 289 289 289 288 288 288
297 297 296 294 294 293 292 293 295 294 294 294 294 295 296 297 298 298 297 298 298 298 298 299 299 299 298 296 297 296 294 295 295 294 294 294 293 294 294 295 294 294 293 293 293 292 291 290 290 289 289 289 289 288 288 288 288 288 288 289 290 287 288 287 289 286 287 290 288 289 286 287 286 286 287 287 287 287 288 288 288 288 288 288 288
296 296 295 295 294 295 295 296 293 293 294 294 295 295 296 297 298 298 297 297 298 298 298 298 297 296 294 294 294 293 293 293 293 292 293 293 293 292 293 294 294 294 293 293 293 292 292 291 290 289 289 289 289 288 288 288 288 288 289 288 289 290 287 289 287 287 287 286 290 284 285 285 289 288 286 285 286 286 286 287 288 288 288 287 287
295 295 295 295 294 294 293 292 292 293 293 294 295 295 296 297 297 297 297 297 297 297 297 297 296 295 293 292 291 292 291 291 290 291 291 291 292 293 293 293 293 293 293 293 293 292 292 291 291 289 288 288 288 288 288 288 288 287 288 289 289 290 290 288 287 288 287 288 287 288 293 296 289 286 286 285 284 286 286 286 286 286 286 287 287
294 293 294 294 294 292 293 293 293 293 293 293 293 294 294 295 296 296 296 296 296 296 297 296 296 295 294 294 294 293 293 293 294 295 293 293 293 292 292 292 293 293 293 293 293 292 292 291 291 290 289 288 288 288 287 288 288 288 288 288 289 289 289 288 288 287 286 286 287 287 287 285 290 287 286 285 284 284 285 285 285 285 286 286 287
293 293 293 293 293 292 293 293 292 292 291 291 292 292 293 294 294 295 295 295 296 296 296 296 295 295 294 294 294 294 294 295 294 294 294 293 292 292 292 292 292 293 292 292 292 292 291 291 290 290 289 288 288 287 287 288 288 288 288 288 288 288 289 290 288 287 286 286 286 286 285 285 286 287 289 291 290 286 284 284 284 285 285 286 286
292 293 293 293 292 293 292 292 291 289 289 290 291 292 292 292 293 293 294 294 295 295 295 295 296 295 295 295 294 295 295 295 294 294 293 293 292 292 291 291 291 292 292 291 292 292 291 291 290 289 289 288 287 287 288 288 288 287 287 286 286 286 287 290 289 286 288 287 284 284 286 285 285 286 285 288 288 287 284 283 285 284 285 285 285
292 291 291 291 292 292 291 289 290 289 287 288 289 290 291 291 291 292 293 293 294 294 295 295 295 295 294 294 294 294 294 292 292 292 292 292 292 291 291 290 290 290 291 291 291 291 291 291 290 289 289 288 287 287 287 287 287 287 287 287 287 287 287 287 288 288 288 288 288 287 286 285 286 286 286 284 284 287 287 284 285 284 283 285 284
292 291 291 292 292 291 289 292 290 288 287 287 288 289 289 290 290 291 291 292 292 293 294 294 294 294 294 294 294 294 293 292 291 291 291 290 291 291 290 290 290 290 290 290 290 290 290 290 289 289 289 288 288 287 287 287 287 287 287 287 287 287 286 286 288 288 287 287 287 287 287 287 288 286 285 285 286 283 282 283 283 284 285 285 284
290 290 291 291 293 293 293 293 292 291 290 288 287 288 289 289 289 290 290 290 291 292 293 293 294 294 294 294 294 294 293 292 291 291 290 290 291 291 290 290 289 290 290 289 289 289 289 289 289 289 288 288 287 287 287 287 287 287 286 286 286 286 287 285 287 286 285 286 286 287 288 289 289 289 288 287 286 286 286 285 285 283 282 283 283
289 289 290 291 290 291 291 291 292 291 290 289 288 288 288 288 288 289 289 289 290 291 292 292 292 293 293 293 293 293 293 293 292 292 291 291 291 291 290 289 289 289 289 289 289 289 289 289 288 288 288 288 288 287 287 287 286 286 286 286 286 286 285 285 285 286 285 285 285 286 286 286 287 286 287 286 286 286 286 284 283 282 283 283 282
287 288 290 289 289 289 290 290 290 290 290 289 288 287 287 287 287 287 288 288 288 289 290 291 291 292 292 292 293 293 293 293 292 292 291 291 291 291 290 290 289 289 289 289 290 289 289 289 289 289 289 288 288 287 287 286 286 285 286 285 285 286 286 285 286 286 285 287 286 285 284 285 285 285 286 286 285 284 283 284 282 281 280 281 281
287 289 289 288 288 288 289 289 289 289 289 289 288 287 287 287 286 286 286 287 287 287 288 289 290 290 290 291 291 291 292 292 292 293 291 290 291 291 291 291 290 290 290 290 290 289 289 289 289 289 288 288 287 287 286 286 286 286 285 286 286 286 285 285 285 285 284 285 285 285 285 285 284 284 284 285 286 286 286 285 283 281 280 279 279
288 287 288 287 288 288 288 288 288 288 288 289 288 287 287 286 286 286 285 285 286 286 287 287 288 288 289 289 289 289 290 290 290 291 290 290 290 290 290 290 291 291 291 290 290 289 289 289 288 288 288 287 287 287 286 285 285 285 284 284 284 285 284 284 285 284 284 285 285 285 284 284 284 283 284 285 285 286 286 285 286 285 283 282 279
287 287 287 286 287 287 287 287 287 288 288 288 288 287 286 286 286 286 286 286 285 286 286 286 287 287 288 288 288 288 289 289 289 289 289 289 289 289 289 289 290 290 290 290 289 289 289 288 288 288 287 287 286 286 286 286 285 284 284 284 284 284 284 284 284 284 284 284 284 284 284 284 283 283 283 284 284 284 284 284 285 286 285 283 281
286 286 286 286 286 286 286 287 287 287 287 287 288 288 287 287 286 286 286 286 286 286 286 286 286 287 287 287 288 288 288 288 288 288 288 288 288 288 288 288 288 289 289 289 289 288 288 287 287 287 287 286 286 286 285 285 284 284 284 284 284 284 283 284 283 283 284 283 284 283 284 283 283 283 283 283 283 283 283 283 283 283 284 283 283
285 285 285 285 286 286 286 286 287 287 287 287 288 288 288 288 287 287 286 286 286 286 286 286 286 287 288 287 287 288 288 288 288 288 287 287 287 287 287 288 288 288 288 288 288 287 287 287 287 286 286 285 285 285 285 284 284 283 283 283 283 283 283 283 283 283 283 283 282 282 282 283 282 282 283 282 282 282 282 282 282 283 281 283 283
284 285 285 285 285 285 286 286 286 286 286 287 287 288 288 288 288 288 288 288 287 287 286 286 286 286 286 286 287 287 287 288 288 288 287 287 287 286 286 286 287 287 287 287 287 287 286 286 286 286 285 285 284 284 284 284 283 283 283 283 282 282 282 282 282 282 282 282 282 281 282 282 282 282 282 282 282 282 282 282 282 282 281 281 282
284 284 284 285 285 285 286 286 287 287 287 287 287 287 287 287 287 287 287 288 288 288 287 287 286 286 285 286 286 286 287 287 287 287 286 286 286 287 286 287 287 286 286 286 286 286 286 286 286 286 285 284 284 284 284 283 283 283 283 283 282 282 282 282 282 281 281 281 282 281 281 281 281 281 281 281 281 281 281 281 281 281 281 280 280
283 284 284 284 285 285 286 286 287 287 287 286 287 287 287 287 287 287 287 287 287 288 287 287 287 286 285 286 286 286 286 286 286 286 286 286 286 286 286 286 285 286 286 286 286 286 286 286 285 285 285 285 284 284 283 283 283 282 282 282 282 281 281 282 281 280 280 281 281 281 280 280 281 281 281 280 280 280 280 280 280 280 280 279 280
283 283 283 284 284 284 285 286 286 286 286 286 286 286 286 286 286 286 286 286 287 287 287 287 286 287 286 286 285 285 285 285 286 286 286 286 287 286 286 286 286 286 286 286 286 286 286 285 285 285 285 284 284 283 283 283 283 282 282 282 282 281 281 281 280 280 280 280 280 280 280 280 280 280 280 280 280 279 280 279 279 280 279 279 279
283 283 283 283 283 283 284 284 285 286 286 286 286 286 286 286 286 286 285 286 287 287 287 287 287 286 286 285 285 285 285 285 285 286 286 286 286 286 286 285 286 286 285 285 285 286 285 285 285 285 285 284 284 283 283 283 283 282 282 282 281 281 281 281 280 280 280 280 280 280 280 279 279 279 279 279 279 279 279 279 279 279 279 279 279
282 282 282 282 283 283 283 284 284 285 285 286 285 285 286 286 286 285 285 286 286 287 287 287 287 286 287 287 286 286 285 285 285 285 285 286 286 286 286 285 285 285 285 285 285 285 285 285 284 285 284 284 284 283 283 283 283 283 283 282 281 281 281 281 281 281 281 280 280 280 280 279 278 278 278 278 278 277 278 278 278 278 278 278 277
281 282 282 281 282 283 283 283 284 284 285 285 285 285 285 285 285 285 285 285 286 286 286 286 286 286 286 286 286 286 286 286 286 286 286 286 286 286 286 286 285 285 285 285 284 284 285 285 285 285 285 284 284 284 283 283 282 283 283 282 282 281 281 281 281 281 281 280 280 280 280 279 278 278 277 277 277 277 277 277 277 277 277 277 276
281 281 281 281 282 282 282 283 284 284 284 285 285 284 285 285 285 285 285 285 285 285 285 285 285 286 286 286 286 286 286 286 286 286 286 286 286 286 286 286 286 285 285 284 284 284 285 285 285 285 285 284 284 284 283 283 283 282 282 282 282 281 281 281 281 281 280 280 280 280 280 279 278 278 278 277 277 276 276 276 276 276 276 275 275
281 281 281 281 281 281 282 282 283 284 285 285 285 285 284 284 284 284 284 284 285 285 285 285 285 285 285 285 285 286 285 285 286 286 286 286 286 286 286 286 286 285 285 284 284 284 284 284 285 285 285 285 284 284 284 283 283 282 282 282 282 281 281 281 281 281 280 280 280 280 280 279 279 279 279 278 277 276 276 275 276 275 275 274 274
280 281 281 281 281 281 282 282 283 284 284 285 285 285 285 285 284 284 284 284 285 284 284 284 284 284 285 285 285 285 285 285 285 285 285 285 285 286 286 286 286 286 286 285 285 285 284 284 284 284 284 284 284 284 284 283 283 282 282 282 282 281 281 280 280 280 280 280 280 280 280 279 279 280 280 279 278 278 275 274 274 274 273 273 273
281 281 282 282 282 282 282 283 283 284 284 284 284 284 284 284 283 283 283 284 285 284 284 283 284 284 285 285 285 284 285 285 285 285 285 285 285 285 285 285 285 285 285 285 285 284 284 284 283 283 283 283 283 284 284 285 285 283 282 282 282 281 281 280 280 279 279 279 279 279 279 280 280 280 280 280 280 280 279 276 274 273 273 272 271
281 281 281 282 282 282 282 282 283 283 284 284 284 284 283 283 283 282 283 284 284 284 283 283 283 284 285 285 284 284 284 284 284 284 285 284 284 284 284 284 284 284 284 284 284 284 284 284 284 283 283 283 283 284 285 287 287 286 283 282 281 281 281 280 280 279 279 278 278 278 278 279 279 280 280 281 281 281 280 279 278 277 276 273 271
279 280 281 281 281 281 282 282 282 283 284 284 283 283 283 282 282 281 282 283 283 283 283 283 284 284 284 284 284 284 284 284 284 284 284 284 283 283 283 283 283 283 283 283 283 283 284 283 283 283 283 283 283 285 286 287 287 287 286 282 282 281 280 280 280 279 279 278 277 277 277 277 278 278 279 279 280 281 280 279 278 278 278 278 277
280 280 281 281 282 282 282 282 282 283 283 283 282 281 281 281 280 281 282 282 282 282 282 282 283 283 284 284 284 283 283 283 284 284 283 283 282 282 282 282 282 283 283 283 283 283 283 283 283 283 283 283 283 285 286 287 287 287 287 284 282 281 280 280 280 279 279 278 277 276 276 276 277 279 278 278 279 279 280 280 279 279 279 279 278
280 280 281 281 281 281 281 281 282 282 282 282 282 281 281 281 280 281 281 281 281 281 281 281 282 282 283 283 283 283 283 283 283 283 283 282 282 282 282 282 282 282 282 282 282 282 282 282 283 282 283 283 283 285 286 287 287 287 287 286 282 281 280 280 279 279 278 278 277 276 275 275 276 277 277 277 278 278 278 278 277 277 277 277 279
280 279 279 279 280 279 280 280 281 282 282 282 281 281 280 279 279 279 280 280 280 280 280 280 281 281 281 281 282 283 283 283 282 282 282 281 282 282 282 282 282 282 282 282 282 282 282 282 282 282 282 282 283 285 286 286 287 287 288 287 283 281 280 280 279 279 278 277 277 276 275 275 275 276 277 277 277 277 277 276 276 276 276 276 277
280 280 281 281 281 280 280 281 282 282 282 281 280 280 279 278 278 278 279 279 279 278 279 279 279 280 280 280 281 282 283 282 282 281 281 281 281 282 282 282 281 281 281 281 281 281 281 281 281 281 281 281 282 285 285 286 287 287 288 286 283 281 280 279 279 278 278 277 277 275 275 275 275 276 278 280 279 277 276 275 275 275 275 276 277
281 281 281 282 281 280 281 281 280 280 280 279 279 278 277 276 276 277 277 277 277 277 277 278 278 278 278 279 280 282 281 281 280 280 280 280 280 281 281 282 280 280 280 280 280 280 280 280 280 280 280 280 281 283 285 286 286 287 287 285 283 281 280 278 278 278 277 276 276 275 275 275 275 275 278 281 281 279 275 275 274 274 275 275 276
281 281 280 280 280 280 280 280 279 279 279 278 276 275 274 274 274 275 275 275 275 275 276 276 276 277 277 277 279 281 280 279 278 278 278 279 279 280 281 281 280 279 279 279 279 279 279 279 279 279 280 280 280 282 284 285 286 287 286 284 283 281 279 278 277 277 277 275 275 277 276 275 275 275 279 281 282 279 275 274 274 274 274 273 275
278 278 277 277 277 277 278 277 277 277 278 277 274 273 273 273 273 273 274 273 274 274 275 274 275 275 275 276 278 279 278 277 276 276 276 276 277 279 280 280 279 279 279 279 278 278 278 278 278 279 281 280 280 281 283 284 285 286 286 284 283 280 278 277 276 275 275 275 275 276 277 276 276 276 280 282 282 279 275 275 274 274 272 272 273
277 277 276 276 277 276 275 275 275 276 276 274 272 272 272 273 273 273 272 272 272 273 274 274 273 273 273 275 277 276 275 274 273 273 274 275 277 278 279 279 279 279 278 278 278 278 277 277 278 278 278 279 279 279 281 284 285 286 287 284 282 280 278 276 275 274 273 274 274 274 277 279 279 279 280 282 282 281 276 275 275 274 273 272 274
276 276 278 276 275 275 275 275 275 275 274 272 271 271 271 271 272 271 271 272 273 273 272 272 272 271 272 273 273 272 271 271 271 272 273 274 276 277 278 278 278 279 278 277 276 276 276 276 277 277 277 278 278 278 279 282 284 285 286 286 281 279 278 277 275 274 273 273 273 273 275 278 280 280 281 283 283 282 278 276 275 274 274 275 276
275 276 275 274 273 273 272 273 273 273 273 271 269 270 270 270 270 270 271 272 272 271 271 270 270 271 271 270 269 269 269 269 270 271 271 272 274 275 276 277 278 277 277 276 276 275 275 275 275 275 275 276 278 279 278 281 283 285 286 287 282 279 279 276 275 274 273 273 273 274 274 277 280 280 281 283 283 282 280 275 275 277 278 278 275
275 275 274 272 272 273 273 273 273 272 271 270 267 268 269 269 269 270 270 270 270 269 269 269 269 268 268 267 267 267 267 268 268 269 270 270 271 272 274 276 276 276 276 275 275 276 275 274 274 274 274 274 275 276 280 279 281 283 285 286 285 281 281 277 275 273 273 273 274 274 275 278 280 281 282 283 284 283 279 275 278 279 279 279 277
274 273 273 270 271 271 272 272 272 272 270 269 267 267 268 268 268 270 269 268 267 267 267 266 266 266 265 265 265 266 266 267 267 268 268 269 269 271 273 275 276 276 275 275 276 275 275 274 274 275 274 274 274 275 277 280 279 282 284 286 286 283 282 278 276 275 275 274 274 274 275 278 281 281 282 283 284 283 278 278 279 280 280 279 274
272 272 272 270 270 270 270 270 271 271 270 269 266 266 267 267 268 268 267 267 266 265 265 264 264 264 264 264 264 264 265 265 266 266 266 268 269 270 272 274 275 275 275 275 275 275 274 274 274 274 274 274 274 274 274 277 280 281 282 285 286 284 283 281 276 275 276 275 276 277 278 279 281 281 282 283 283 283 280 280 280 280 279 276 272
271 271 271 270 269 269 268 268 269 269 269 269 268 266 265 267 268 267 266 265 264 263 263 263 263 263 263 263 263 263 263 264 265 266 266 267 268 270 271 273 275 275 275 274 274 275 275 274 274 274 274 274 274 273 273 275 277 279 280 282 285 285 283 282 279 276 277 278 278 278 279 280 281 281 280 280 280 281 281 280 280 280 277 271 271
270 270 269 268 268 267 267 267 267 268 268 268 267 267 267 267 266 266 265 264 262 262 262 262 262 262 262 262 261 262 262 263 264 265 266 268 269 270 272 273 274 274 275 274 274 274 275 274 274 274 274 274 273 273 273 274 275 276 278 280 282 284 283 282 279 277 277 276 277 277 277 279 280 281 281 281 280 281 280 280 278 277 271 270 270
269 269 268 267 266 266 266 266 266 267 267 267 266 266 266 265 265 264 262 262 261 261 261 260 261 261 261 261 260 262 262 262 263 264 264 266 268 269 270 271 273 274 274 274 274 274 274 274 274 274 274 274 273 273 273 273 274 275 276 278 280 282 281 280 278 276 276 276 276 278 278 278 279 279 279 278 278 278 276 272 270 269 269 268 269
267 267 267 266 265 265 265 264 265 266 266 265 264 264 264 264 264 262 261 260 260 260 260 259 259 260 259 260 260 260 261 261 262 263 265 266 267 268 270 271 273 275 275 275 275 275 275 275 275 275 274 273 273 273 273 276 275 277 276 277 278 280 280 279 278 278 275 275 275 275 275 275 276 276 274 273 271 269 268 268 267 266 267 267 267
266 266 265 264 264 264 263 263 263 264 263 263 262 262 262 262 261 260 260 259 259 259 258 258 258 258 258 259 259 260 260 261 261 262 263 264 268 272 272 271 271 275 278 279 280 277 277 277 276 276 277 275 275 275 277 278 278 279 279 280 280 282 282 280 279 280 276 274 274 273 274 274 274 272 271 270 270 268 265 265 265 267 266 266 266
264 263 263 262 262 261 261 260 260 261 260 260 260 260 260 260 260 259 259 258 258 257 257 257 258 258 258 259 259 259 259 260 261 262 263 264 265 269 274 276 276 277 277 279 280 281 282 282 279 277 278 280 280 280 279 279 279 280 280 281 281 283 283 282 281 277 274 273 273 272 272 273 272 271 270 269 268 267 265 264 264 265 265 266 265
Wind_Speed
13 5 6 5 5 6 7 6 7 7 8 8 10 11 13 13 11 15 11 11 9 9 9 10 11 8 7 11 12 9 9 8 8 9 9 9 10 10 11 9 10 10 10 10 10 9 8 8 8 8 8 9 9 10 9 9 8 7 6 4 6 5 3 3 3 5 9 6 5 5 4 3 3 3 3 3 3 2 3 3 3 4 4 4 3
7 7 6 6 7 6 6 6 5 7 10 10 11 13 12 11 14 11 9 10 11 11 10 10 10 11 11 10 8 8 9 11 11 10 10 9 9 10 9 9 10 11 10 10 9 10 10 9 9 10 9 9 8 7 8 8 8 7 7 5 1 4 4 6 6 5 2 5 6 4 3 1 1 2 2 3 2 2 2 3 3 4 4 3 3
9 7 5 6 6 7 7 6 7 10 8 8 10 8 9 11 11 10 9 11 12 13 10 11 8 10 9 6 9 6 6 6 5 7 6 8 8 8 8 9 10 9 10 10 10 10 10 10 10 9 10 9 9 9 9 10 9 10 10 8 6 1 2 2 6 3 4 3 3 5 3 3 2 2 1 1 1 2 1 3 2 4 4 4 3
16 8 8 7 9 8 8 7 8 6 7 7 7 10 8 9 10 11 11 12 12 13 14 12 11 9 8 5 8 8 6 7 8 7 9 7 9 9 8 9 9 10 10 10 8 9 11 11 9 9 10 10 10 10 10 10 9 8 8 7 7 7 4 5 3 4 3 8 5 1 3 2 2 7 6 2 1 1 2 2 1 2 3 3 3
12 11 7 10 9 9 8 9 5 6 7 7 7 8 7 11 11 11 11 12 11 11 12 9 8 7 6 5 5 5 3 7 7 8 9 9 7 10 9 8 9 9 10 11 10 11 10 10 10 10 10 9 8 9 10 11 11 10 11 9 11 8 8 3 4 4 6 3 3 6 3 2 3 2 4 2 2 2 1 2 1 1 2 2 3
6 8 9 10 9 10 9 9 8 6 8 7 5 7 7 6 7 8 8 8 9 10 12 9 9 9 10 9 9 9 8 9 14 14 9 11 11 5 6 10 9 10 10 11 10 9 10 9 9 9 9 8 8 8 8 8 10 11 11 9 10 7 9 7 6 3 1 2 3 2 1 2 5 2 3 3 1 1 1 0 0 0 1 1 1
2 4 9 11 10 9 9 8 8 8 7 6 5 6 7 6 6 8 9 8 9 10 13 10 10 9 12 12 10 10 10 9 6 5 9 7 6 11 9 9 11 11 9 9 9 9 9 9 9 9 9 8 8 8 9 11 10 10 8 9 9 6 6 9 10 7 3 2 1 0 2 1 2 7 4 3 2 2 4 2 3 1 1 2 1
4 4 7 9 8 6 10 10 7 7 8 7 5 5 6 6 6 7 6 6 7 9 12 12 12 11 12 13 12 11 12 10 8 6 5 6 8 8 9 9 9 10 10 10 10 9 9 9 9 9 9 9 9 9 9 8 7 6 8 8 5 5 8 8 9 7 11 5 3 3 3 3 4 5 3 5 3 4 4 2 2 2 2 3 2
6 9 10 10 10 11 9 10 9 8 7 6 6 5 4 4 4 4 5 5 5 8 10 11 12 12 11 10 12 9 8 5 4 5 6 6 8 6 7 8 8 9 9 10 10 10 9 9 9 9 9 9 9 8 7 9 11 11 10 10 9 7 7 5 6 8 8 7 7 1 2 3 3 3 2 3 3 4 2 3 3 2 2 3 1
6 8 9 9 8 8 7 5 8 9 9 8 7 6 4 2 3 4 6 5 5 7 8 10 11 10 12 13 14 11 7 5 5 8 8 7 8 8 7 7 8 8 9 10 10 10 10 9 9 10 10 9 9 9 9 10 10 10 10 10 9 9 6 6 8 6 7 5 8 8 5 3 2 2 1 3 3 2 3 5 4 6 5 3 1
10 9 5 3 3 5 8 9 7 7 9 9 9 7 6 4 2 4 4 4 5 7 8 10 9 9 10 11 12 12 9 8 7 8 7 8 8 8 7 7 6 8 8 8 10 10 11 10 10 10 10 10 10 11 11 10 10 10 9 10 10 10 8 7 6 5 6 6 7 8 10 10 11 8 8 5 5 4 2 2 2 4 2 3 1
8 8 11 13 17 17 15 17 16 14 11 10 7 7 7 5 3 3 2 2 3 5 6 8 7 9 8 7 10 10 9 9 11 11 8 9 8 8 6 5 6 5 6 7 9 10 10 10 12 11 11 11 12 10 9 9 9 9 8 9 8 9 7 7 6 7 9 6 7 6 7 7 6 6 7 7 8 6 6 4 4 3 2 3 1
9 9 12 14 14 15 17 17 17 17 15 15 14 9 8 7 6 3 4 2 2 3 5 7 7 9 9 9 9 8 9 9 10 9 8 8 7 7 7 7 5 6 8 8 8 11 9 10 11 12 11 11 10 10 10 11 10 10 10 10 10 11 10 9 8 9 10 10 9 7 4 5 6 2 5 6 3 3 5 4 1 1 1 2 2
7 9 13 13 13 12 13 14 15 14 15 14 14 13 10 8 7 6 7 5 4 3 4 6 7 7 6 7 7 6 8 8 7 8 7 6 6 8 8 8 9 10 10 11 8 7 7 9 10 9 10 10 12 12 11 11 11 11 11 11 13 11 9 11 10 10 8 8 5 7 7 6 5 4 5 7 8 7 5 6 6 2 1 1 1
10 13 14 14 14 14 14 14 14 15 14 12 12 11 8 8 8 8 8 7 7 6 4 5 6 5 5 5 5 4 6 6 6 5 5 6 6 7 7 7 8 8 9 8 8 10 10 8 9 8 9 9 9 9 9 9 10 9 10 10 9 9 11 9 9 10 9 10 9 8 7 6 5 5 6 6 7 8 8 7 8 6 3 2 1
12 13 14 15 15 15 16 16 16 16 18 18 18 14 12 10 10 9 8 8 7 6 6 5 6 5 5 6 6 6 6 5 5 4 5 6 8 9 9 8 7 6 6 7 9 9 10 10 9 10 9 8 9 10 9 9 10 10 9 9 11 7 10 12 10 10 11 11 10 7 6 7 6 6 6 6 7 6 5 6 8 7 6 3 2
14 13 13 14 15 16 15 15 14 15 16 16 16 15 16 15 13 12 10 8 8 7 6 6 6 6 6 6 6 6 7 7 6 5 6 5 6 7 8 9 8 8 8 8 8 9 9 9 9 9 10 9 9 10 10 9 9 10 9 10 11 9 9 12 9 10 10 10 8 10 8 7 7 5 5 5 5 4 4 5 6 9 7 4 3
12 12 11 10 9 11 10 11 13 14 15 17 18 15 13 12 13 13 12 11 9 8 8 6 6 6 6 6 6 6 7 7 6 6 5 6 7 7 7 7 9 9 9 9 10 9 9 11 9 9 9 9 10 9 9 9 10 9 9 10 9 9 10 8 9 9 9 8 8 8 7 6 6 6 6 6 6 6 6 5 5 2 4 7 6
11 11 11 13 14 15 16 16 16 16 15 14 14 15 15 14 13 12 14 12 10 8 7 7 5 5 4 6 6 7 7 7 7 7 6 8 9 9 9 10 8 8 8 9 8 9 10 10 10 9 9 10 9 9 9 9 10 9 9 9 9 10 10 10 8 9 8 9 10 10 8 7 7 7 6 6 5 6 6 5 4 4 3 4 4
10 10 11 12 13 14 14 14 14 13 13 13 13 14 17 16 16 15 13 12 12 12 9 9 8 6 6 6 6 6 6 7 8 7 8 8 9 9 10 10 12 9 10 10 11 10 10 10 10 10 10 10 10 9 10 9 9 10 9 9 9 10 10 11 9 8 7 9 10 11 10 9 8 7 7 7 7 6 6 6 6 6 5 4 4
13 13 13 13 12 12 12 12 11 11 10 11 12 13 12 13 15 15 16 16 16 13 11 9 7 7 7 8 7 7 8 7 8 8 9 9 9 9 9 9 6 10 9 10 12 13 11 11 10 12 12 11 12 11 10 9 10 11 9 9 9 11 12 10 9 10 9 10 10 11 10 9 9 10 8 7 7 7 6 5 5 6 6 5 6
11 11 11 11 10 10 9 9 10 12 14 15 14 13 15 16 13 13 13 13 14 15 13 12 9 7 8 8 8 7 7 7 8 9 10 9 9 9 9 7 10 10 9 11 10 11 10 11 11 12 11 11 11 12 11 10 11 11 11 8 10 12 12 11 10 11 11 9 10 11 10 10 11 10 9 9 8 9 8 8 7 8 7 7 6
8 8 7 7 8 8 8 9 9 10 10 11 12 13 13 13 14 13 14 15 12 11 11 10 11 12 11 8 8 7 7 8 9 9 10 10 10 10 8 10 11 9 9 10 11 10 11 11 12 12 12 11 11 11 11 12 12 13 13 11 10 13 13 13 13 13 12 10 11 11 11 10 8 10 10 9 9 9 8 8 9 7 8 7 7
9 8 7 7 5 4 6 8 10 10 10 10 10 10 11 11 12 13 15 16 15 14 12 11 10 9 9 10 10 8 7 8 8 8 10 10 10 9 9 10 10 9 10 10 11 12 11 12 12 12 11 11 12 12 12 12 14 14 13 13 12 12 12 12 13 12 13 13 14 12 11 12 11 11 11 10 9 9 10 9 9 8 8 8 8
11 12 11 11 12 14 12 10 9 8 8 8 9 8 8 9 10 11 12 12 12 12 13 13 13 13 12 10 10 10 9 8 8 8 9 10 10 10 8 10 10 10 10 10 10 10 12 12 12 12 15 15 13 12 12 12 11 11 14 13 12 12 13 13 12 12 12 14 14 15 13 13 13 12 11 11 11 13 11 10 10 9 9 8 7
7 9 11 13 10 10 12 12 11 10 10 9 9 9 8 7 8 7 8 9 11 11 12 12 13 13 13 15 14 12 12 12 12 10 9 8 8 8 9 9 9 11 11 11 11 10 12 14 15 15 15 15 14 14 14 12 12 12 12 11 10 11 13 12 12 12 13 14 14 14 13 14 15 15 14 12 13 15 12 11 11 10 9 8 9
5 4 5 6 11 13 12 12 11 10 10 8 8 9 9 9 9 9 9 8 8 8 8 9 10 11 12 14 14 14 13 12 11 12 11 10 9 9 8 9 8 11 11 10 11 12 12 13 15 14 13 12 13 13 12 12 12 13 12 12 14 11 12 11 12 12 12 13 12 12 13 15 16 15 14 15 14 13 12 14 12 11 10 10 9
6 7 9 9 8 7 8 9 11 11 11 10 9 8 9 9 10 11 11 11 10 11 11 11 11 9 9 10 11 12 13 13 13 11 10 10 11 11 10 9 8 10 10 11 12 12 12 12 13 14 13 12 12 12 12 12 11 11 14 16 16 15 11 12 12 12 11 12 13 12 12 14 15 15 14 14 15 15 12 12 10 9 11 11 9
8 8 7 6 7 7 9 9 8 9 10 11 11 11 11 10 9 9 9 11 11 11 11 11 11 11 11 11 10 10 10 12 13 13 13 12 10 10 11 10 9 10 9 10 11 12 12 13 13 13 13 13 13 14 13 13 15 16 16 16 17 16 14 13 13 14 13 11 11 11 11 12 16 15 15 15 17 15 13 11 10 11 11 9 8
7 8 7 6 7 6 6 7 8 8 9 9 9 10 11 11 12 12 11 10 9 10 11 12 12 11 10 10 9 9 10 10 11 12 13 13 13 11 9 9 10 11 10 10 10 11 12 13 13 13 13 13 14 13 15 20 16 15 16 14 14 15 16 15 15 14 11 9 11 10 11 13 16 17 18 21 23 23 19 14 15 14 13 10 9
6 7 7 7 8 8 8 8 8 8 9 9 8 8 8 8 9 11 11 11 10 10 10 9 11 11 11 11 11 11 10 11 10 11 11 12 13 12 11 11 9 9 10 11 11 12 12 12 13 14 15 14 14 13 20 20 24 23 16 15 15 14 14 15 15 16 14 10 10 9 8 12 15 16 16 22 23 24 22 20 20 22 20 19 15
5 6 7 7 8 8 9 10 9 8 8 8 9 9 9 9 10 11 11 10 10 10 10 10 10 9 10 11 12 13 13 13 11 11 11 11 12 12 12 11 10 10 9 9 11 12 12 13 12 14 15 15 15 15 19 22 24 25 21 16 14 13 13 15 14 13 9 9 10 10 8 8 10 12 12 16 20 22 23 22 23 23 23 21 19
6 7 8 8 9 9 9 10 9 8 7 7 6 7 8 8 10 11 10 11 11 11 11 11 10 9 10 9 10 11 12 12 12 12 11 10 10 11 12 12 12 10 9 9 11 12 12 12 13 15 15 15 14 13 19 21 23 24 25 20 13 14 13 14 10 11 10 10 10 10 10 9 9 18 14 13 14 16 21 22 22 23 22 22 19
6 6 7 7 7 7 7 8 9 8 7 6 5 6 6 6 8 9 10 10 11 12 12 12 11 9 10 10 10 10 11 11 11 12 12 11 11 10 10 9 10 10 9 10 10 11 12 12 13 14 14 14 15 12 19 21 22 24 25 22 14 13 13 14 15 12 10 11 12 11 11 10 10 14 12 14 14 14 15 15 16 15 14 17 18
8 8 7 7 8 7 7 7 7 7 7 6 7 6 7 8 8 10 9 9 10 10 11 11 11 12 11 11 11 11 11 11 11 11 12 12 12 11 11 9 8 9 10 11 10 11 11 11 12 12 13 14 13 15 19 22 22 24 25 21 14 13 13 13 13 12 11 10 12 10 11 11 13 14 12 16 15 15 14 14 14 13 12 13 13
8 9 10 8 8 8 8 8 6 6 7 6 7 6 7 9 9 9 9 8 8 9 10 10 10 11 11 12 13 13 12 11 12 12 12 12 12 12 12 11 9 8 8 8 10 9 11 12 12 12 12 14 12 14 19 21 23 23 25 16 14 14 14 13 13 14 10 8 10 11 11 12 11 11 19 26 20 14 16 16 16 13 11 10 10
8 8 9 9 7 7 8 7 7 7 7 7 6 5 7 9 10 9 8 9 8 9 10 10 10 11 11 12 13 12 13 13 13 13 14 13 13 13 12 9 9 9 9 9 10 10 10 11 11 11 12 13 12 13 18 21 22 24 20 13 13 12 13 13 13 12 9 12 10 12 11 11 11 12 21 27 26 21 15 16 15 15 13 11 9
9 8 7 7 7 6 7 7 8 10 9 6 4 5 7 7 8 7 8 9 8 9 10 9 10 10 12 12 12 11 12 14 14 14 15 15 14 13 12 9 9 11 10 10 9 9 10 10 11 12 12 13 12 12 18 20 23 24 20 14 12 13 13 13 11 11 9 7 10 21 17 15 11 12 24 27 28 22 16 16 16 15 13 11 9
8 8 8 7 7 7 7 7 7 10 10 5 5 5 7 9 9 8 7 9 9 10 10 10 11 11 12 12 12 11 11 13 14 15 14 16 16 14 13 11 10 9 11 9 8 9 10 9 10 12 12 14 12 11 17 20 23 24 20 13 12 11 12 12 9 6 4 5 8 15 23 18 11 16 27 28 29 21 13 15 15 15 13 14 10
9 7 7 6 7 6 8 9 10 11 8 6 4 5 7 9 10 8 9 9 9 10 9 9 11 12 11 12 10 10 11 12 14 16 16 15 14 13 13 12 11 9 10 9 8 9 11 11 9 10 10 11 12 10 11 20 22 24 26 15 11 12 14 13 10 8 7 6 7 7 17 23 22 23 25 28 29 27 12 8 11 14 14 12 10
8 9 6 5 6 7 10 11 10 9 7 5 5 6 10 10 10 10 11 10 10 9 9 10 11 12 12 11 9 10 13 14 14 14 15 14 14 14 14 14 13 11 10 10 10 10 10 11 9 9 10 10 10 10 11 19 22 24 27 24 12 14 12 11 11 11 9 9 8 9 8 21 24 25 27 28 30 28 19 13 11 11 12 11 13
7 7 6 5 6 8 10 11 11 9 8 5 5 8 10 9 9 12 11 9 9 9 9 9 12 12 11 11 13 13 13 13 14 13 14 16 15 14 15 15 12 12 13 13 11 9 9 10 9 8 9 10 9 12 9 16 22 24 26 31 15 14 12 11 11 11 9 7 9 8 8 19 28 27 28 29 30 28 24 13 12 14 16 20 13
10 9 6 3 7 12 13 14 12 8 4 4 4 8 10 10 12 13 9 8 7 8 9 11 12 12 13 13 13 14 15 13 14 14 14 16 16 15 16 15 14 13 13 14 13 10 10 10 9 7 7 8 8 9 15 12 18 24 26 28 23 14 19 13 12 13 12 9 8 11 13 24 28 30 29 30 30 30 24 14 22 21 20 22 16
7 7 9 5 8 10 13 15 14 10 5 4 5 9 11 12 16 10 7 7 7 9 9 11 12 13 13 14 14 15 14 13 14 14 15 16 17 16 14 13 13 12 12 12 11 10 9 10 10 10 6 6 6 6 10 17 16 23 25 27 25 21 22 14 12 13 8 9 9 9 13 25 28 29 30 31 29 27 17 24 25 24 24 20 11
10 12 10 7 10 13 14 15 15 14 11 6 5 9 12 16 14 6 8 8 9 10 11 13 14 14 14 13 13 13 14 14 14 13 14 15 16 15 14 13 12 11 11 12 12 10 10 11 10 10 9 7 6 7 6 12 19 20 24 26 28 26 24 23 14 9 9 10 12 20 23 27 28 30 32 30 26 27 25 26 27 26 22 10 11
11 10 9 8 10 12 13 16 17 16 13 8 8 7 13 15 10 7 8 7 9 12 14 16 15 15 15 14 16 16 15 14 15 12 12 13 13 14 13 13 12 11 12 11 12 11 10 11 10 8 9 9 6 5 8 9 11 15 17 24 28 26 26 24 19 13 15 18 21 23 26 27 27 24 20 17 14 15 23 27 27 25 12 11 11
13 13 10 10 10 13 16 17 18 18 13 9 9 10 11 10 10 9 8 9 10 13 15 16 17 16 15 14 15 14 14 13 12 12 11 12 12 12 12 13 12 12 12 11 12 12 11 11 11 11 10 8 6 7 6 7 9 9 10 13 17 18 25 25 16 13 15 14 17 19 16 20 17 24 23 17 15 16 18 18 16 12 9 11 11
12 11 10 11 12 13 16 17 19 19 14 11 10 11 12 10 10 9 8 10 14 15 15 16 17 14 14 13 14 17 17 13 13 12 14 14 12 12 11 13 11 12 11 12 12 12 12 12 11 10 9 8 7 6 7 9 9 11 11 11 12 11 12 13 11 11 12 14 15 18 19 15 14 14 14 11 11 10 9 7 9 10 10 10 12
14 14 12 13 13 15 16 17 17 16 14 12 13 12 10 11 10 9 10 13 16 17 17 17 16 14 14 13 12 12 12 13 13 14 12 12 11 11 13 14 14 12 13 12 12 13 13 12 11 11 10 11 10 11 13 12 12 14 13 11 12 12 11 12 13 17 12 11 11 13 12 13 12 12 10 9 8 9 8 9 11 10 10 10 10
13 12 13 15 15 14 14 16 17 15 15 16 14 14 10 9 10 11 13 15 17 17 16 17 14 12 13 11 10 12 11 13 13 14 14 15 21 26 20 16 16 21 27 28 23 17 15 11 11 12 11 13 13 12 11 17 20 20 22 24 20 18 17 13 18 27 17 13 14 14 14 14 13 10 11 11 10 10 10 9 8 8 9 10 9
15 15 16 15 16 15 18 18 18 16 16 15 18 13 15 13 12 12 14 16 16 15 15 16 14 12 13 14 12 13 13 13 13 13 14 15 16 16 23 28 27 27 27 29 30 32 33 30 19 13 13 21 21 15 14 18 21 24 25 25 26 24 23 24 27 20 15 14 14 14 14 14 14 13 13 13 12 12 11 11 10 10 9 10 9
Wind_Direction
286 351 352 321 288 266 255 248 244 240 238 223 217 214 211 207 191 205 193 184 177 176 181 180 182 176 186 198 201 175 187 185 193 197 196 198 190 191 187 185 177 176 179 175 176 171 167 156 158 167 166 168 169 180 169 167 170 168 148 160 157 151 145 159 172 142 120 87 75 73 74 48 55 34 57 69 76 101 122 119 120 110 100 95 87
311 17 10 347 326 321 305 275 250 243 234 217 217 216 210 203 204 202 176 186 190 187 184 189 193 192 186 193 180 177 181 189 196 192 198 197 195 195 189 183 181 182 177 178 172 167 163 166 169 171 170 175 172 151 159 164 160 160 157 149 254 178 159 179 187 164 127 152 149 136 87 113 62 18 34 54 46 75 96 109 112 102 95 96 90
335 60 15 358 333 288 274 258 251 235 249 221 228 218 208 206 209 193 191 189 195 191 186 196 188 195 195 185 186 184 203 208 203 198 188 196 193 193 191 189 184 182 175 178 176 175 170 167 176 168 175 165 162 168 166 171 172 168 175 169 156 170 132 169 201 258 128 113 109 122 156 161 190 224 206 12 64 57 63 82 78 84 83 82 83
322 358 6 323 283 295 290 283 259 261 263 259 236 222 214 213 206 197 196 196 193 195 197 196 190 187 190 154 178 183 182 176 193 187 191 183 197 190 195 189 184 184 176 176 178 179 176 178 170 173 177 177 172 163 171 172 166 172 179 190 170 152 186 180 216 195 189 152 163 244 139 191 169 213 186 147 45 49 55 82 82 84 90 96 87
321 338 348 298 310 299 287 279 306 284 266 261 246 228 216 216 207 200 196 197 196 192 191 172 152 137 129 92 113 115 97 165 181 210 192 189 187 194 194 178 183 180 177 186 185 182 181 179 176 176 174 176 171 170 173 178 176 178 179 177 192 170 159 169 185 174 224 297 139 132 113 219 227 93 129 174 156 181 141 34 89 50 82 81 79
326 326 302 300 300 311 318 316 313 298 285 283 297 273 264 246 215 202 198 192 193 188 181 167 175 167 157 160 173 182 188 183 198 199 167 188 197 131 158 188 179 187 188 188 190 181 181 180 173 170 174 174 180 175 166 160 182 184 191 184 187 217 164 149 164 190 242 201 265 343 313 174 158 171 171 190 127 265 314 225 102 357 359 40 77
326 300 311 319 329 334 329 336 330 322 308 314 286 261 250 242 221 210 202 195 189 183 176 175 179 183 189 192 192 193 201 215 209 182 190 190 170 184 182 174 187 186 184 186 188 185 177 175 175 176 174 174 173 169 177 185 181 187 170 191 199 165 157 170 177 167 137 216 188 199 86 4 108 139 193 92 183 161 223 199 189 188 280 299 274
312 315 306 310 314 337 335 326 330 318 304 310 298 278 256 249 225 212 210 204 192 182 183 184 185 186 191 200 203 206 210 212 191 197 171 176 189 185 180 185 184 187 179 183 185 184 181 178 176 173 175 179 175 185 181 175 172 180 190 198 176 189 192 183 171 170 176 167 147 131 83 78 53 42 72 165 137 165 191 174 217 214 249 242 269
335 346 340 334 332 336 336 333 329 322 326 320 308 292 266 250 230 224 215 196 194 189 190 194 195 191 192 197 208 217 217 207 141 155 175 175 189 183 188 182 182 188 184 179 183 184 183 180 176 176 175 176 179 179 179 175 181 176 179 186 194 194 203 206 162 186 201 164 147 106 100 72 61 50 80 49 151 170 172 187 186 146 237 226 211
349 358 340 326 324 334 335 300 341 346 335 331 333 340 341 345 209 199 210 189 179 190 196 202 203 197 201 204 209 210 195 175 160 174 178 171 190 191 187 181 186 183 185 183 180 183 179 177 179 180 179 174 180 183 175 179 183 185 187 190 189 193 194 204 198 189 196 168 180 145 146 130 85 105 77 113 43 12 177 193 188 173 193 178 188
15 349 328 313 304 345 345 5 357 3 356 356 357 355 355 355 321 211 209 177 179 193 194 203 207 213 218 214 211 210 196 179 176 189 169 173 194 187 188 193 187 194 182 185 185 178 181 179 178 182 180 181 182 183 188 180 180 181 182 187 193 193 194 192 203 194 187 173 178 178 169 173 170 174 179 185 163 151 131 226 186 206 169 156 160
2 359 0 4 10 9 10 8 2 8 19 13 360 354 359 356 360 282 321 244 201 191 197 212 207 219 231 233 227 223 200 195 200 197 187 190 193 187 176 174 197 199 199 193 193 185 182 183 183 180 184 182 189 184 177 180 176 177 179 186 191 196 186 186 197 176 182 186 193 194 191 184 170 173 172 164 171 183 174 171 172 137 216 217 75
18 2 8 18 17 7 3 1 8 10 6 2 2 2 359 355 358 339 304 334 273 236 218 217 216 221 219 222 226 222 221 215 212 210 187 192 185 182 174 188 172 192 204 207 210 194 190 182 184 187 187 189 180 176 180 174 174 179 181 184 189 188 189 185 188 190 182 183 188 195 184 186 183 133 146 163 162 119 159 133 121 87 151 105 94
7 8 22 22 15 12 9 8 9 9 9 9 6 2 354 346 349 357 328 347 331 307 260 240 237 238 239 242 240 226 229 221 223 222 203 198 185 190 184 187 188 197 189 203 193 198 210 210 200 198 194 185 185 183 178 178 175 181 180 184 189 191 180 188 193 184 193 204 175 172 191 189 172 163 158 154 158 149 169 176 141 132 92 203 80
18 24 24 19 15 17 19 16 13 11 12 15 14 8 356 354 348 359 347 346 347 325 316 273 262 259 255 256 252 260 252 247 234 218 199 199 202 202 199 196 198 199 200 193 180 192 204 205 208 206 200 194 188 185 188 180 181 181 188 189 187 182 183 179 189 179 183 187 185 190 179 185 175 172 169 177 166 178 162 159 153 154 177 174 203
21 28 27 24 22 20 20 17 14 13 11 12 14 12 11 7 3 6 353 338 343 340 317 306 290 287 277 266 258 251 248 251 252 248 234 198 200 205 207 204 208 200 202 192 200 191 196 199 199 204 197 192 193 194 187 185 183 187 187 188 192 172 182 184 188 182 191 187 185 179 174 193 177 176 183 171 179 172 160 156 169 168 169 195 163
26 28 29 24 21 21 19 19 16 14 13 14 14 11 8 5 7 1 353 345 343 332 314 297 295 291 276 269 264 258 254 251 249 247 230 213 207 214 215 215 207 202 201 197 194 194 197 199 200 199 197 195 193 195 192 189 185 193 190 187 192 180 183 188 180 188 189 179 185 181 187 176 179 173 177 176 166 159 165 170 180 178 180 183 172
26 25 26 29 31 27 24 22 21 19 15 14 13 10 13 13 7 3 359 352 335 327 317 302 286 283 278 275 268 255 255 255 252 248 233 216 209 208 208 208 211 209 199 193 190 189 195 200 201 200 200 196 199 193 194 189 184 197 194 195 192 171 186 187 191 185 182 177 178 179 183 180 172 176 180 169 169 167 161 173 182 161 168 195 189
28 22 18 19 20 20 19 17 12 15 14 13 11 11 13 16 14 13 3 350 334 325 317 306 289 275 267 262 257 262 253 254 245 232 218 215 216 212 209 211 205 201 198 193 189 187 191 193 197 197 194 200 197 199 191 193 190 195 193 195 185 183 188 190 187 183 181 174 178 180 182 180 167 176 167 169 171 170 173 167 170 154 177 211 179
28 24 22 20 19 19 17 15 14 12 11 8 7 9 14 12 11 8 7 6 358 355 342 326 313 291 280 275 265 251 251 247 243 239 235 228 225 219 217 213 212 198 202 192 196 196 194 193 193 193 195 195 195 195 191 192 190 202 192 194 186 180 192 192 184 187 176 185 178 184 182 176 169 169 173 174 176 178 166 170 169 171 170 175 178
22 21 18 18 16 14 14 12 12 10 13 15 16 15 12 9 11 9 6 1 3 359 355 341 320 303 287 279 272 263 259 250 254 245 243 239 232 225 225 223 206 212 199 201 202 201 197 198 194 199 196 191 190 190 189 189 196 199 197 193 177 188 192 194 177 187 187 186 188 184 180 179 166 172 174 170 174 171 169 171 167 171 176 177 178
17 14 12 11 12 10 11 12 13 15 13 12 9 11 11 11 6 5 3 6 1 356 355 346 340 318 302 291 284 275 262 259 253 252 246 245 240 235 230 216 217 217 200 208 205 203 202 200 199 203 200 197 193 191 186 189 196 196 197 190 188 187 195 191 181 189 187 189 183 183 182 177 178 175 169 175 171 171 175 171 182 181 182 181 186
17 15 14 8 6 7 7 12 17 18 13 11 11 12 9 5 4 2 3 360 359 354 348 344 340 342 340 321 304 293 279 266 258 256 255 251 247 241 228 225 226 220 210 211 207 204 203 202 206 207 202 200 196 195 193 193 196 195 195 192 190 189 191 187 187 192 184 179 183 191 184 171 168 176 178 175 170 176 173 179 180 183 184 183 183
8 9 10 12 9 6 14 13 13 12 13 15 12 9 6 6 4 1 1 355 353 353 350 352 352 349 342 340 334 315 295 277 265 258 258 257 253 249 234 233 233 223 218 215 213 210 206 205 210 209 203 201 198 200 199 202 201 194 195 194 189 191 195 195 190 182 180 183 188 180 184 174 172 174 175 175 179 173 176 180 179 186 185 180 185
4 5 1 0 6 8 8 6 10 11 11 10 10 10 9 3 2 3 358 352 351 348 347 349 350 351 355 1 355 345 334 308 283 272 262 260 257 252 244 238 234 233 226 217 217 212 213 211 211 209 209 208 206 200 200 203 204 206 204 197 190 189 194 197 192 188 183 184 184 191 175 170 174 175 175 179 177 178 178 176 180 181 184 180 174
359 359 5 4 356 355 359 359 359 2 3 2 3 3 3 3 3 1 357 352 349 347 345 348 350 351 352 353 354 355 350 341 327 311 293 277 264 253 247 242 231 236 230 223 220 213 214 216 217 216 213 213 209 207 208 205 202 203 206 208 203 195 194 194 191 192 188 189 189 187 175 176 176 180 181 177 174 179 174 177 177 177 176 170 177
2 359 349 354 4 360 351 352 352 351 357 357 356 355 356 354 355 358 356 352 349 348 343 349 347 349 349 352 350 348 346 343 338 327 319 311 298 282 263 254 237 234 234 228 222 222 221 221 221 218 216 211 209 208 209 207 206 203 203 203 205 203 202 199 199 197 192 191 191 187 183 182 184 184 174 176 174 172 175 180 179 173 168 168 173
359 1 4 1 353 347 350 345 344 345 345 347 352 353 353 354 351 352 350 351 350 349 349 349 349 349 351 350 347 342 343 340 338 334 325 317 309 303 289 273 255 244 239 234 229 224 226 223 225 221 220 214 212 212 209 209 205 202 204 208 207 207 202 207 205 200 195 192 195 193 189 187 186 185 179 175 169 172 169 172 174 165 168 168 171
357 351 353 348 347 342 337 341 337 339 345 346 345 348 349 350 354 349 351 348 346 345 347 347 346 347 346 345 343 342 340 338 337 336 336 329 319 303 296 287 270 260 248 241 237 232 231 229 228 226 223 217 218 216 213 208 207 207 209 209 208 207 206 208 211 210 207 199 195 195 192 189 193 192 186 178 180 171 160 164 169 167 168 168 162
346 339 334 333 328 330 329 330 334 337 342 343 345 346 347 347 347 347 344 346 345 344 343 342 343 340 337 338 338 337 337 334 335 336 332 330 327 322 307 292 286 273 260 251 245 236 233 232 230 227 224 222 223 222 216 210 203 204 205 208 208 210 209 208 208 210 208 202 198 193 196 186 189 186 181 181 182 182 185 176 164 167 169 162 168
329 328 319 320 324 322 329 331 332 337 336 343 338 339 338 341 343 341 340 338 341 335 340 336 336 333 334 336 339 338 337 337 334 330 331 331 329 326 320 309 292 275 266 259 246 244 237 234 231 229 227 227 226 225 216 207 207 204 200 206 207 210 207 208 208 206 207 193 195 192 181 184 186 185 184 180 181 183 181 182 181 176 171 168 166
313 313 309 313 318 323 327 331 328 328 332 335 337 335 339 342 340 339 334 332 333 334 332 333 328 329 330 335 336 336 337 335 336 335 332 328 324 324 320 314 304 293 275 260 252 246 243 236 234 232 231 230 230 228 216 212 209 206 201 203 205 208 206 209 207 204 199 183 184 182 182 180 183 181 172 179 183 183 181 180 180 182 184 186 179
307 311 315 318 318 320 321 318 319 317 318 320 325 329 328 340 336 329 330 330 333 332 330 328 329 328 331 330 332 331 330 329 330 329 328 324 322 319 318 316 309 296 287 272 258 250 245 240 234 236 235 233 234 222 218 215 212 209 205 201 211 207 206 210 204 203 193 186 180 179 180 184 182 180 177 178 174 180 182 180 180 183 188 189 193
275 278 280 285 288 288 290 292 293 297 297 296 316 315 320 333 327 323 326 326 329 328 329 327 328 333 332 332 329 328 324 323 323 324 324 322 319 314 306 302 301 302 288 274 264 255 249 242 237 236 239 239 236 228 219 216 213 210 207 201 211 207 211 211 209 201 191 185 184 180 178 179 176 180 179 177 175 172 174 174 178 181 185 191 191
288 281 272 268 271 271 277 287 290 293 300 310 317 324 330 328 328 323 317 319 321 319 321 322 324 327 331 330 328 323 321 320 322 320 320 317 316 313 310 303 299 293 291 282 272 264 253 246 244 240 242 241 238 225 220 218 214 210 209 204 208 210 213 214 211 207 197 187 183 180 179 177 174 181 179 175 170 172 171 175 177 179 180 184 186
284 288 287 286 282 283 285 286 286 297 298 306 307 322 331 319 321 311 309 311 314 315 313 317 321 325 328 329 326 322 320 322 322 320 316 314 313 311 309 308 302 290 277 272 272 265 261 254 246 244 244 245 241 224 219 217 214 211 207 206 208 210 213 212 211 210 201 185 180 176 179 183 174 182 185 183 179 167 173 175 176 177 176 180 188
269 267 274 276 274 279 282 284 292 293 294 297 304 321 319 314 314 312 311 309 311 309 310 313 316 320 323 323 321 318 319 321 321 318 316 313 311 308 305 303 296 287 283 275 269 262 259 256 251 244 242 245 244 227 221 216 214 210 206 208 208 210 215 213 212 207 188 188 181 181 177 179 179 185 185 186 183 173 173 174 173 175 178 178 182
263 266 263 268 273 275 279 279 288 290 283 284 296 314 310 304 298 298 300 301 304 300 303 308 309 316 318 317 314 316 318 318 317 316 314 311 308 303 296 294 290 290 283 272 266 266 258 252 249 245 238 243 243 229 222 218 213 210 204 205 206 209 213 212 211 204 200 185 182 187 187 188 183 179 186 187 184 176 174 174 172 171 172 178 178
257 257 266 271 271 264 268 275 276 280 282 279 292 308 303 293 294 295 291 292 296 297 305 311 312 314 314 310 308 311 314 312 311 310 311 307 303 299 297 297 285 275 272 272 264 260 260 250 245 244 241 239 244 231 220 219 215 212 208 206 205 206 210 210 199 187 182 177 185 194 192 191 179 179 187 189 187 179 174 175 174 170 176 179 177
263 263 256 268 281 293 286 279 277 277 281 283 291 293 286 287 290 290 286 284 286 290 298 306 309 308 307 303 304 311 309 308 306 305 305 300 297 296 293 291 287 278 276 270 260 256 257 256 245 242 242 238 240 234 223 222 218 214 210 206 204 202 209 203 191 187 177 188 186 182 195 195 189 185 190 192 192 186 175 162 169 180 177 176 158
262 264 264 269 270 268 274 278 278 280 281 281 288 289 284 283 285 287 283 287 291 299 307 308 308 306 302 302 308 308 306 302 299 297 297 295 294 294 295 292 288 284 275 270 262 258 255 258 251 244 244 240 234 232 224 222 223 219 214 208 205 207 206 196 194 190 190 189 184 187 179 193 188 185 190 192 194 190 180 178 181 179 181 164 154
249 259 268 269 277 273 274 276 274 275 274 273 276 278 279 283 284 276 278 291 293 299 305 306 299 297 298 302 303 303 300 297 297 296 297 295 293 293 291 289 285 281 279 274 271 263 259 259 257 244 243 245 234 226 223 222 224 224 221 214 204 207 195 188 192 196 193 186 183 173 166 188 192 188 192 192 192 190 182 178 180 167 156 160 156
295 297 286 288 294 293 290 286 285 279 260 260 261 271 278 281 277 276 292 289 297 299 300 297 295 296 297 296 296 297 296 297 296 296 295 291 291 291 289 286 282 279 274 274 269 264 259 260 259 242 233 238 238 234 224 220 224 227 225 223 208 194 192 190 193 198 195 187 174 184 185 188 192 192 191 193 192 186 180 175 175 170 170 162 151
285 282 292 308 286 282 285 288 288 286 277 247 244 269 276 279 275 291 294 289 292 293 293 293 291 289 291 291 292 292 289 289 291 294 293 288 288 287 283 279 278 275 275 272 270 261 256 258 257 257 240 214 216 228 228 224 223 225 229 228 217 195 191 192 194 205 186 177 176 175 184 190 193 193 193 195 194 186 176 175 176 176 172 164 142
297 295 300 306 286 285 286 287 288 290 289 279 241 258 272 272 279 302 289 295 295 296 295 290 290 289 287 288 288 286 286 286 284 285 286 285 284 285 284 280 274 272 267 265 266 261 253 255 256 255 255 239 220 223 224 228 227 225 229 231 229 211 198 190 191 198 185 192 179 183 185 189 191 192 193 193 194 187 174 175 177 174 171 154 147
294 294 298 296 293 288 286 285 288 288 290 292 278 253 268 276 293 293 293 293 295 295 293 290 290 289 289 291 291 290 286 285 283 280 277 276 276 279 277 277 273 264 263 261 263 261 255 254 253 254 251 243 223 202 224 224 226 229 229 232 233 220 205 196 186 183 182 180 184 186 185 189 191 190 190 192 190 187 178 176 177 175 168 149 149
295 297 308 303 296 295 292 292 291 290 293 293 283 278 272 286 294 300 301 298 294 291 289 290 288 289 290 289 289 289 291 289 283 280 273 271 270 270 271 272 268 264 259 256 256 256 255 252 249 251 250 245 229 221 218 214 216 223 222 227 230 229 208 203 189 180 173 175 182 182 184 190 190 190 189 187 184 184 186 181 178 167 135 151 155
295 300 307 299 293 289 291 294 293 294 299 296 287 284 290 296 299 305 307 304 296 290 288 287 286 287 286 286 284 285 285 283 283 280 281 279 271 266 267 266 267 263 259 257 253 253 251 249 251 249 247 240 230 216 214 213 212 212 217 216 222 227 202 201 187 180 171 169 170 179 182 188 189 190 187 187 185 182 176 145 137 132 142 143 151
306 309 308 299 300 298 295 293 289 295 300 299 296 294 299 305 307 312 309 301 293 290 287 283 282 285 281 283 279 277 278 279 280 278 265 263 267 272 267 267 260 259 257 257 260 256 250 247 244 244 240 241 238 230 225 210 211 208 207 210 213 214 195 195 182 168 160 163 165 171 174 180 188 191 180 173 152 136 128 138 132 133 140 143 143
305 308 305 304 301 299 299 299 298 304 303 301 300 301 306 311 310 307 303 293 290 289 286 282 281 279 281 283 281 278 276 277 277 277 278 275 266 266 264 264 269 264 262 261 257 254 252 249 246 242 229 234 237 234 226 215 214 211 213 214 217 214 200 186 176 174 160 165 175 174 179 180 179 171 169 169 165 151 140 139 146 130 138 143 150
315 315 312 312 311 311 308 302 301 304 301 302 302 303 307 306 303 296 293 287 286 284 281 282 285 281 282 287 284 285 283 279 275 272 275 278 281 272 262 260 261 269 272 269 265 261 258 254 247 251 240 234 240 238 217 212 214 217 214 215 217 218 206 187 174 168 169 175 177 180 182 182 179 170 169 169 161 160 158 150 149 152 153 154 153